DELTA 1 DEB, 2154

Orbit data source: Space-Track

DELTA 1 DEB, 2154 is space debris in SSO originally from a launch on Thu, 03 Feb 1966 UTC launched from the Air Force Eastern Test Range (AFETR). Debris objects in space refer to the collection of defunct objects orbiting the Earth. Examples of debris include non-operational satellites, rocket bodies, and fragments generated from explosions, collisions, or faulty payload assembly.

Loading next visibility...
Identifier
2154, 1966-008E
Orbit
SSO
Country
Flag of USUS
Related business
Manufacturer
Unknown
Mission
Spacecraft
Bus & Motor
Unknown
Mass
Unknown
Launch date (UTC)
1966-02-03 (60 years ago)
Launch vehicle
Unknown
Launch site
Air Force Eastern Test Range (AFETR)
Object type
Payload
Rocket body
Debris
Shape & HBR
Unknown shape, 0.1 m
Radar Cross Section
Small (<0.1 m²)

Expand to show TLE details & history
Last TLE update: 12 hours ago

TLE from 12 hours ago
0 DELTA 1 DEB
1 02154U 66008E   25346.79185238  .00002768  00000-0  44899-3 0  9995
2 02154  97.8565 104.2288 0046646 183.6333 176.4542 14.71254308151609
Epoch: 2025-12-12T19:00Z
TLE epoch observation values (Epoch: 2025-12-12T19:00:16.045Z)
Latitude
-0.00007°
Longitude
97.43356°
Altitude
692.839 km
Speed
7.492 km/s
True Right ascension
06h 56m 54s
True Declination
0° 00' 00"
Sunlit
Object was in full shadow at epoch
Visualization orbit readout
Latitude
Unknown
Longitude
Unknown
Altitude
Unknown
Speed
Unknown
Apparent Right ascension
Unknown
Apparent Declination
Unknown
Sunlit
N/A
Visualization observer readout
Local Sidereal Time
05:21:14
Azimuth
Unknown
Elevation
Unknown
Doppler factor
Unknown
Orbital elements
Apogee altitude
686.92 km
Perigee altitude
621.315 km
Semi-major axis
7,032.254 km
Eccentricity
0.00466
Inclination
97.8565°
RAAN
104.2288°
Arg. of periapsis
183.6333°
True anomaly
176.48707°
Mean anomaly
176.4542°
Eccentric anomaly
176.47065°
Mean motion
3.68045 °/min
Orbital period
97.81 mins
BSTAR
0.00044899
Loading maneuver chart data...
Computing Atmospheric mass density...
Loading historical data...
Loading historical data...
Loading historical data...
Loading historical data...
Loading historical data...
Loading historical data...
Loading historical data...
Other satellites on launch #8 in the year 1966 (1966-02-03 UTC)

Documentation

Showing up to 5 results
|